Torna al catalogo

STARLINK-11388

AttivoComunicazioniVLEO
NORAD 62092·PAYLOAD·🇺🇸 United States

Lanciato Nov 25, 2024 da Cape Canaveral Space Force Station

Loading…

Prossimi Passaggi (prossime 24 ore)

TLE

AggiornatoSource: CelesTrak SupGP

Epoca: Sep 14, 2026, 21:35 UTC

1 62092C 24220E   26257.89979167 -.00055552  00000+0 -43133-3 0  2574
2 62092  43.0005 342.6523 0001692 260.5565 334.8222 15.70873783    19

Traccia STARLINK-11388 in tempo reale con AllMySat

Download on the App Store